RADUGA 11 [-]

Last updated on Jan. 18, 2020, 4:38 a.m. UTC

1 13669U 82113A   20017.42336008 -.00000051  00000-0  00000-0 0  9993
2 13669  13.6348 330.5724 0036973 235.0527 317.8336  0.97707587 98646
UTC
Height (km)
Latitude
Longitude
Inclination
Orbital Period
UTC large
Height (km)
Speed (km/s)
/
Latitude / Longitude
Inclination (degrees)
Orbital Period (minutes)
Azimuth
Elevation
Range (km)
Doppler Factor
iOS Compass Heading
iOS Angle

Next 30 passes for location: Hong Kong

Rise time Rise Azimuth (degrees) Set time Set Azimuth (degrees) Duration Max altitude (degrees)

No matching passes for this satellites